Raleigh-Durham Airport, NC

8:57 PM EDT on October 16, 2019 (GMT -0400)
Raleigh-Durham International

Weather History for KRDU - September, 2019

Change the Weather History Date:

Sunday, September 22, 2019

  Actual Average Record
Temperature  
Mean Temperature 77 °F 70 °F  
Max Temperature 90 °F 80 °F 98 °F (1895)
Min Temperature 63 °F 59 °F 42 °F (1889)
Degree Days  
Heating Degree Days 0 1  
Month to date heating degree days 0 6  
Since 1 July heating degree days 0 7  
Cooling Degree Days 12 6  
Month to date cooling degree days 251 190  
Year to date cooling degree days 1871 1631  
Growing Degree Days 26 (Base 50)    
Moisture  
Dew Point 61 °F    
Average Humidity 64    
Maximum Humidity 90    
Minimum Humidity 38    
Precipitation  
Precipitation 0.00 in 0.12 in 2.74 in (1923)
Month to date precipitation 1.11 3.35  
Year to date precipitation 33.08 32.89  
Sea Level Pressure  
Sea Level Pressure 30.16 in    
Wind  
Wind Speed 8 mph (SSW)    
Max Wind Speed 14 mph    
Max Gust Speed 18 mph    
Visibility 10 miles    
Events      
T = Trace of Precipitation, MM = Missing Value Source: NWS Daily Summary

Daily Weather History Graph

Daily Weather History Graph

Search for Another Location

Airport or City:

Astronomy

Sep. 22, 2019 Rise Set
Actual Time 7:02 AM EDT 7:12 PM EDT
Civil Twilight 6:37 AM EDT 7:37 PM EDT
Nautical Twilight 6:07 AM EDT 8:07 PM EDT
Astronomical Twilight 5:37 AM EDT 8:37 PM EDT
Moon 12:02 AM EDT (9/22) 2:54 PM EDT (9/22)
Length of Visible Light 13h 00m
Length of Day
12h 09m
Last Quarter, 44% of the Moon is Illuminated
Sep 22
Last Quarter
Sep 28
New
Oct 5
First Quarter
Oct 13
Full
Oct 21
Last Quarter

Hourly Weather History & Observations

Time (EDT) Temp. Heat Index Dew Point Humidity Pressure Visibility Wind Dir Wind Speed Gust Speed Precip Events Conditions
12:51 AM 72.0 °F - 61.0 °F 68% 30.22 in 10.0 mi SSW 5.8 mph - N/A   Clear
1:51 AM 69.1 °F - 61.0 °F 75% 30.22 in 10.0 mi SW 4.6 mph - N/A   Scattered Clouds
2:51 AM 69.1 °F - 60.1 °F 73% 30.21 in 10.0 mi SSW 6.9 mph - N/A   Partly Cloudy
3:51 AM 66.9 °F - 60.1 °F 79% 30.20 in 10.0 mi South 3.5 mph - N/A   Partly Cloudy
4:51 AM 64.9 °F - 59.0 °F 81% 30.20 in 10.0 mi SW 5.8 mph - N/A   Partly Cloudy
5:51 AM 64.0 °F - 59.0 °F 84% 30.20 in 10.0 mi SW 6.9 mph - N/A   Partly Cloudy
6:51 AM 63.0 °F - 59.0 °F 87% 30.20 in 10.0 mi WSW 5.8 mph - N/A   Partly Cloudy
7:51 AM 64.9 °F - 60.1 °F 84% 30.21 in 10.0 mi WSW 4.6 mph - N/A   Clear
8:51 AM 70.0 °F - 60.1 °F 71% 30.21 in 10.0 mi SW 8.1 mph - N/A   Clear
9:51 AM 75.0 °F - 60.1 °F 60% 30.22 in 10.0 mi SSW 5.8 mph - N/A   Clear
10:51 AM 81.0 °F 81.6 °F 60.1 °F 49% 30.22 in 10.0 mi SSW 6.9 mph - N/A   Partly Cloudy
11:51 AM 84.0 °F 84.0 °F 60.1 °F 44% 30.20 in 10.0 mi SW 5.8 mph - N/A   Partly Cloudy
12:51 PM 87.1 °F 86.7 °F 60.1 °F 40% 30.18 in 10.0 mi SSW 9.2 mph - N/A   Partly Cloudy
1:51 PM 88.0 °F 87.1 °F 59.0 °F 37% 30.14 in 10.0 mi SW 6.9 mph - N/A   Partly Cloudy
2:51 PM 90.0 °F 89.7 °F 60.1 °F 37% 30.12 in 10.0 mi SSW 9.2 mph - N/A   Partly Cloudy
3:51 PM 89.1 °F 88.8 °F 60.1 °F 38% 30.10 in 10.0 mi South 13.8 mph - N/A   Partly Cloudy
4:51 PM 89.1 °F 88.8 °F 60.1 °F 38% 30.10 in 10.0 mi South 10.4 mph - N/A   Partly Cloudy
5:51 PM 86.0 °F 85.7 °F 60.1 °F 41% 30.10 in 10.0 mi South 9.2 mph - N/A   Partly Cloudy
6:51 PM 82.0 °F 83.0 °F 62.1 °F 51% 30.09 in 10.0 mi SSE 8.1 mph - N/A   Partly Cloudy
7:51 PM 78.1 °F - 63.0 °F 60% 30.11 in 10.0 mi SSE 6.9 mph - N/A   Scattered Clouds
8:51 PM 77.0 °F - 63.0 °F 62% 30.11 in 10.0 mi South 6.9 mph - N/A   Scattered Clouds
9:51 PM 75.9 °F - 63.0 °F 64% 30.12 in 10.0 mi South 9.2 mph - N/A   Partly Cloudy
10:51 PM 73.9 °F - 63.0 °F 68% 30.12 in 10.0 mi South 9.2 mph - N/A   Partly Cloudy
11:51 PM 73.0 °F - 63.0 °F 71% 30.11 in 10.0 mi SSW 6.9 mph - N/A   Partly Cloudy